User: anonymous   Login
Location: Boncourt
(49.6160°N, 3.9448°E)
Time: 23:05:35
(UTC+00:00)
Language:

Cosmos 1814 Rocket - Orbit

View from above orbital plane
View from above orbital plane
View from above satellite
View from above satellite

Ground track
Ground track

The orbit data is extracted from the following two-line orbital elements,

1 17304U 87006B   23156.14166517  .00000283  00000-0  10165-3 0  9993
2 17304  74.0599  44.8922 0028616  57.2091 303.1813 14.38048595906222
Epoch (UTC): 05 June 2023 03:23:59
Eccentricity: 0.0028616
inclination: 74.0599°
perigee height: 744 km
apogee height: 785 km
right ascension of ascending node: 44.8922°
argument of perigee: 57.2091°
revolutions per day: 14.38048595
mean anomaly at epoch: 303.1813°
orbit number at epoch: 90622

The dashed part of the orbit path shows where the satellite is in the earth's shadow,  

DLR